Weather History for KPCW - April, 2014

Change the Weather History Date:

Saturday, April 5, 2014

  Actual Average (KTOL) Record (KTOL)
Temperature  
Mean Temperature 41 °F 45 °F  
Max Temperature 48 °F 56 °F 82 °F (1988)
Min Temperature 34 °F 35 °F 12 °F (1995)
Degree Days  
Heating Degree Days 24 20  
Month to date heating degree days 102  
Since 1 July heating degree days 5528  
Cooling Degree Days 0 0  
Month to date cooling degree days 0  
Year to date cooling degree days 0  
Moisture  
Dew Point 30 °F    
Average Humidity 68    
Maximum Humidity 81    
Minimum Humidity 49    
Precipitation  
Precipitation 0.00 in 0.10 in 0.95 in (2009)
Month to date precipitation 0.50  
Year to date precipitation 7.10  
Snow  
Snow 0.00 in 0.00 in - ()
Month to date snowfall 0.4  
Since 1 July snowfall 36.6  
Snow Depth -    
Sea Level Pressure  
Sea Level Pressure 30.05 in    
Wind  
Wind Speed 15 mph (West)    
Max Wind Speed 24 mph    
Max Gust Speed -    
Visibility 10 miles    
Events      
T = Trace of Precipitation, MM = Missing Value Source: NWS Daily Summary

Daily Weather History Graph

Daily Weather History Graph

Search for Another Location

Airport or City:

Trip Planner

Search our weather history database for the weather conditions in past years. The results will help you decide how hot, cold, wet, or windy it might be!

Date:

Astronomy

Apr. 05, 2014 Rise Set
Actual Time 7:07 AM EDT 8:01 PM EDT
Civil Twilight 6:39 AM EDT 8:29 PM EDT
Nautical Twilight 6:06 AM EDT 9:02 PM EDT
Astronomical Twilight 5:31 AM EDT 9:37 PM EDT
Moon 11:11 AM EDT (4/5) 1:12 AM EDT (4/5)
Length of Visible Light 13h 49m
Length of Day
12h 53m
Waxing Crescent, 34% of the Moon is Illuminated
Apr 5
Waxing Crescent
Apr 7
First Quarter
Apr 15
Full
Apr 22
Last Quarter
Apr 29
New

Hourly Weather History & Observations

Time (EDT) Temp. Windchill Dew Point Humidity Pressure Visibility Wind Dir Wind Speed Gust Speed Precip Events Conditions
12:14 AM 39.2 °F 28.5 °F 32.0 °F 75% 29.79 in 10.0 mi SW 24.2 mph - N/A   Overcast
12:33 AM 39.2 °F 29.0 °F 32.0 °F 75% 29.80 in 10.0 mi SW 21.9 mph - N/A   Overcast
12:40 AM 39.2 °F 29.6 °F 32.0 °F 75% 29.80 in 10.0 mi SW 19.6 mph - N/A   Overcast
1:11 AM 39.2 °F 29.6 °F 32.0 °F 75% 29.81 in 10.0 mi SW 19.6 mph - N/A   Overcast
1:34 AM 39.2 °F 29.8 °F 32.0 °F 75% 29.82 in 10.0 mi SW 18.4 mph - N/A   Overcast
1:54 AM 39.2 °F 30.2 °F 32.0 °F 75% 29.83 in 10.0 mi WSW 17.3 mph - N/A   Overcast
2:13 AM 37.4 °F 27.8 °F 32.0 °F 81% 29.86 in 10.0 mi SW 17.3 mph - N/A   Overcast
2:34 AM 37.4 °F 27.2 °F 32.0 °F 81% 29.86 in 10.0 mi SW 19.6 mph - N/A   Overcast
2:54 AM 37.9 °F 28.5 °F 32.0 °F 79% 29.87 in 10.0 mi WSW 17.3 mph - N/A   Overcast
3:13 AM 37.4 °F 27.2 °F 32.0 °F 81% 29.87 in 10.0 mi WSW 19.6 mph - N/A   Overcast
3:34 AM 37.4 °F 27.2 °F 32.0 °F 81% 29.86 in 10.0 mi SW 19.6 mph - N/A   Overcast
3:54 AM 37.4 °F 27.8 °F 30.2 °F 75% 29.88 in 10.0 mi WSW 17.3 mph - N/A   Overcast
4:13 AM 37.4 °F 26.4 °F 28.4 °F 70% 29.90 in 10.0 mi West 23.0 mph - N/A   Mostly Cloudy
4:34 AM 37.4 °F 27.2 °F 28.4 °F 70% 29.91 in 10.0 mi WSW 19.6 mph - N/A   Overcast
4:54 AM 37.4 °F 28.5 °F 30.2 °F 75% 29.91 in 10.0 mi West 15.0 mph - N/A   Overcast
5:14 AM 37.4 °F 28.2 °F 30.2 °F 75% 29.91 in 10.0 mi WSW 16.1 mph - N/A   Overcast
5:26 AM 37.4 °F 27.5 °F 30.2 °F 75% 29.92 in 10.0 mi West 18.4 mph - N/A   Overcast
5:54 AM 35.6 °F 24.2 °F 28.4 °F 75% 29.94 in 10.0 mi WSW 21.9 mph - N/A   Overcast
6:14 AM 35.6 °F 24.5 °F 28.4 °F 75% 29.95 in 10.0 mi WSW 20.7 mph - N/A   Overcast
6:33 AM 35.6 °F 24.2 °F 28.4 °F 75% 29.96 in 10.0 mi West 21.9 mph - N/A   Overcast
6:53 AM 36.0 °F 24.4 °F 28.0 °F 73% 29.97 in 10.0 mi West 23.0 mph - N/A   Overcast
7:14 AM 35.6 °F 24.2 °F 26.6 °F 70% 30.00 in 10.0 mi West 21.9 mph - N/A   Overcast
7:34 AM 35.6 °F 25.9 °F 26.6 °F 70% 30.02 in 10.0 mi West 16.1 mph - N/A   Overcast
7:54 AM 35.6 °F 27.1 °F 26.6 °F 70% 30.02 in 10.0 mi West 12.7 mph - N/A   Overcast
8:13 AM 35.6 °F 25.9 °F 26.6 °F 70% 30.02 in 10.0 mi WSW 16.1 mph - N/A   Overcast
8:32 AM 35.6 °F 25.2 °F 26.6 °F 70% 30.03 in 10.0 mi West 18.4 mph - N/A   Overcast
8:54 AM 34.9 °F 24.9 °F 27.1 °F 73% 30.05 in 10.0 mi WSW 16.1 mph - N/A   Overcast
9:04 AM 35.6 °F 25.5 °F 26.6 °F 70% 30.06 in 10.0 mi West 17.3 mph - N/A   Overcast
9:34 AM 35.6 °F 26.2 °F 28.4 °F 75% 30.07 in 10.0 mi West 15.0 mph - N/A   Overcast
9:53 AM 36.0 °F 26.0 °F 27.1 °F 70% 30.07 in 10.0 mi West 17.3 mph - N/A   Overcast
10:08 AM 37.4 °F 28.2 °F 28.4 °F 70% 30.08 in 10.0 mi West 16.1 mph - N/A   Overcast
10:34 AM 37.4 °F 28.5 °F 28.4 °F 70% 30.10 in 10.0 mi West 15.0 mph - N/A   Overcast
10:53 AM 37.4 °F 28.5 °F 28.4 °F 70% 30.11 in 10.0 mi West 15.0 mph - N/A   Overcast
11:13 AM 39.2 °F 30.8 °F 30.2 °F 70% 30.11 in 10.0 mi West 15.0 mph - N/A   Mostly Cloudy
11:34 AM 39.2 °F 30.8 °F 32.0 °F 75% 30.11 in 10.0 mi West 15.0 mph - N/A   Scattered Clouds
11:53 AM 41.0 °F 33.1 °F 32.0 °F 70% 30.11 in 10.0 mi West 15.0 mph - N/A   Partly Cloudy
12:14 PM 41.0 °F 33.9 °F 32.0 °F 70% 30.12 in 10.0 mi WNW 12.7 mph - N/A   Partly Cloudy
12:34 PM 41.0 °F 33.5 °F 32.0 °F 70% 30.12 in 10.0 mi WNW 13.8 mph - N/A   Partly Cloudy
12:53 PM 41.9 °F 35.4 °F 32.9 °F 70% 30.12 in 10.0 mi WNW 11.5 mph - N/A   Clear
1:14 PM 42.8 °F 37.0 °F 33.8 °F 70% 30.12 in 10.0 mi WNW 10.4 mph - N/A   Clear
1:34 PM 42.8 °F 35.8 °F 33.8 °F 70% 30.13 in 10.0 mi NW 13.8 mph - N/A   Clear
1:53 PM 42.8 °F 36.6 °F 33.8 °F 70% 30.12 in 10.0 mi NNW 11.5 mph - N/A   Clear
2:14 PM 44.6 °F 39.7 °F 33.8 °F 66% 30.12 in 10.0 mi NNW 9.2 mph - N/A   Clear
2:34 PM 44.6 °F 39.7 °F 35.6 °F 71% 30.12 in 10.0 mi NNW 9.2 mph - N/A   Clear
2:53 PM 43.9 °F 38.8 °F 32.9 °F 65% 30.12 in 10.0 mi NNW 9.2 mph - N/A   Clear
3:14 PM 44.6 °F 40.2 °F 33.8 °F 66% 30.12 in 10.0 mi NNW 8.1 mph - N/A   Clear
3:34 PM 44.6 °F 40.2 °F 33.8 °F 66% 30.12 in 10.0 mi NNW 8.1 mph - N/A   Clear
3:53 PM 45.9 °F 41.2 °F 32.9 °F 61% 30.12 in 10.0 mi NNW 9.2 mph - N/A   Clear
4:14 PM 42.8 °F 38.0 °F 30.2 °F 61% 30.12 in 10.0 mi North 8.1 mph - N/A   Clear
4:33 PM 46.4 °F 42.9 °F 32.0 °F 57% 30.13 in 10.0 mi NNW 6.9 mph - N/A   Clear
4:53 PM 46.9 °F - 32.0 °F 56% 30.13 in 10.0 mi NNW 8.1 mph - N/A   Clear
5:14 PM 48.2 °F - 30.2 °F 50% 30.13 in 10.0 mi NNW 6.9 mph - N/A   Clear
5:33 PM 48.2 °F - 30.2 °F 50% 30.13 in 10.0 mi North 5.8 mph - N/A   Clear
5:53 PM 47.8 °F - 31.1 °F 52% 30.14 in 10.0 mi Variable 5.8 mph - N/A   Clear
6:14 PM 48.2 °F - 30.2 °F 50% 30.14 in 10.0 mi Variable 5.8 mph - N/A   Clear
6:33 PM 46.4 °F 42.9 °F 28.4 °F 50% 30.14 in 10.0 mi North 6.9 mph - N/A   Clear
6:53 PM 47.8 °F - 30.0 °F 50% 30.14 in 10.0 mi NNW 4.6 mph - N/A   Clear
7:14 PM 46.4 °F 45.2 °F 28.4 °F 50% 30.14 in 10.0 mi North 3.5 mph - N/A   Clear
7:33 PM 44.6 °F - 26.6 °F 49% 30.14 in 10.0 mi Calm Calm - N/A   Clear
7:53 PM 43.9 °F - 26.1 °F 50% 30.14 in 10.0 mi Calm Calm - N/A   Clear
8:14 PM 42.8 °F - 26.6 °F 53% 30.14 in 10.0 mi Calm Calm - N/A   Clear
8:33 PM 39.2 °F - 24.8 °F 56% 30.15 in 10.0 mi Calm Calm - N/A   Clear
8:54 PM 39.9 °F - 28.0 °F 63% 30.16 in 10.0 mi Calm Calm - N/A   Clear
9:14 PM 39.2 °F - 33.8 °F 81% 30.16 in 10.0 mi Calm Calm - N/A   Clear
9:33 PM 37.4 °F - 26.6 °F 65% 30.17 in 10.0 mi Calm Calm - N/A   Clear
9:54 PM 36.0 °F - 27.1 °F 70% 30.17 in 10.0 mi Calm Calm - N/A   Clear
10:14 PM 35.6 °F - 26.6 °F 70% 30.18 in 10.0 mi Calm Calm - N/A   Clear
10:33 PM 35.6 °F - 26.6 °F 70% 30.17 in 10.0 mi Calm Calm - N/A   Clear
10:54 PM 34.9 °F - 28.0 °F 76% 30.17 in 10.0 mi Calm Calm - N/A   Clear
11:13 PM 35.6 °F 32.8 °F 28.4 °F 75% 30.17 in 10.0 mi SSW 3.5 mph - N/A   Clear
11:33 PM 35.6 °F 32.8 °F 28.4 °F 75% 30.17 in 10.0 mi South 3.5 mph - N/A   Clear
11:54 PM 36.0 °F 32.1 °F 29.1 °F 76% 30.17 in 10.0 mi South 4.6 mph - N/A   Clear